Location: Bucharest
(44.4268°N, 26.1025°E)
Time: 00:01:14
(UTC+03:00)

X-37B - Pass Details

Date: 28 January 2022
Orbit: 329 x 342 km, 45.0° (Epoch: 18 May)

Event Time Altitude Azimuth Distance (km) Brightness Sun altitude
Rises 18:23:10 0° 227° (SW) 2,110 5.5 -11.6°
Reaches altitude 10° 18:25:19 10° 215° (SW) 1,273 3.9 -12.0°
Maximum altitude 18:27:49 28° 154° (SSE) 670 1.6 -12.4°
Enters shadow 18:29:00 20° 112° (ESE) 842 1.8 -12.6°
